Location: Bussy-Saint-Georges
(48.8410°N, 2.7017°E)
Time: 15:01:01
(UTC+00:00)

Ariane Rocket - Pass Details

Date: 18 October 2021
Orbit: 759 x 770 km, 98.7° (Epoch: 28 November)

Event Time Altitude Azimuth Distance (km) Brightness Sun altitude
Exits shadow 20:07:00 32° 350° (N) 1,314 4.4 -32.0°
Drops below altitude 10° 20:09:41 10° 347° (NNW) 2,326 5.9 -32.4°
Sets 20:12:00 0° 347° (NNW) 3,257 6.7 -32.8°
